This is the latest recevied weather packets stored in our database for station/object NQ9F. If no packets are shown the sender has not sent any weather packets the latest 1 day(s).
| Time | Temp. | Humidity | Pressure | Rain* | Wind** | Luminosity | Snow |
|---|---|---|---|---|---|---|---|
| 1778036614 | 16.11° C | 81% | 1009.2 hPa | 0 mm | 4.92 m/s, 359° | 0 W/m² | - |
| 1778036311 | 16.67° C | 80% | 1009.3 hPa | 0 mm | 2.68 m/s, 349° | 0 W/m² | - |
| 1778036007 | 16.67° C | 81% | 1009.2 hPa | 0 mm | 6.26 m/s, 5° | 0 W/m² | - |
| 1778035704 | 16.67° C | 81% | 1009.1 hPa | 0 mm | 6.26 m/s, 0° | 0 W/m² | - |
| 1778035401 | 16.67° C | 81% | 1009.1 hPa | 0 mm | 4.47 m/s, 2° | 0 W/m² | - |
| 1778035097 | 16.67° C | 81% | 1009.2 hPa | 0 mm | 3.58 m/s, 6° | 0 W/m² | - |
| 1778034794 | 16.67° C | 80% | 1009 hPa | 0 mm | 3.58 m/s, 4° | 0 W/m² | - |
| 1778034491 | 17.22° C | 79% | 1008.8 hPa | 0 mm | 4.92 m/s, 358° | 0 W/m² | - |
| 1778034189 | 17.22° C | 79% | 1008.8 hPa | 0 mm | 1.79 m/s, 17° | 0 W/m² | - |
| 1778033887 | 17.22° C | 79% | 1008.8 hPa | 0 mm | 4.02 m/s, 7° | 0 W/m² | - |
| 1778033583 | 17.78° C | 79% | 1008.7 hPa | 0 mm | 4.02 m/s, 2° | 0 W/m² | - |
| 1778033280 | 17.78° C | 79% | 1008.8 hPa | 0 mm | 1.79 m/s, 355° | 0 W/m² | - |
| 1778032978 | 17.78° C | 79% | 1008.6 hPa | 0 mm | 2.24 m/s, 8° | 0 W/m² | - |
| 1778032675 | 17.78° C | 78% | 1008.2 hPa | 0 mm | 3.58 m/s, 2° | 0 W/m² | - |
| 1778032374 | 17.78° C | 78% | 1008.2 hPa | 0 mm | 5.36 m/s, 4° | 0 W/m² | - |
| 1778032069 | 18.33° C | 78% | 1008.1 hPa | 0 mm | 1.79 m/s, 0° | 0 W/m² | - |
| 1778031766 | 18.33° C | 78% | 1007.7 hPa | 0 mm | 3.58 m/s, 3° | 0 W/m² | - |
| 1778031463 | 18.33° C | 77% | 1007.4 hPa | 0 mm | 2.68 m/s, 351° | 0 W/m² | - |
| 1778031160 | 18.33° C | 77% | 1007.2 hPa | 0 mm | 5.36 m/s, 2° | 0 W/m² | - |
| 1778030856 | 18.33° C | 76% | 1007.6 hPa | 0 mm | 4.47 m/s, 6° | 0 W/m² | - |
| 1778030553 | 18.33° C | 77% | 1007.4 hPa | 0 mm | 4.02 m/s, 6° | 1 W/m² | - |
| 1778030251 | 18.33° C | 77% | 1007.3 hPa | 0 mm | 4.92 m/s, 4° | 1 W/m² | - |
| 1778029947 | 18.89° C | 77% | 1007.1 hPa | 0 mm | 3.58 m/s, 353° | 3 W/m² | - |
| 1778029645 | 18.89° C | 77% | 1006.9 hPa | 0 mm | 4.02 m/s, 2° | 10 W/m² | - |
| 1778029342 | 18.89° C | 77% | 1006.4 hPa | 0 mm | 2.24 m/s, 25° | 12 W/m² | - |
* Rain latest hour (hover to see other rain measurements)
** Current wind speed in m/s (hover to see current wind gust speed)